Weather History for KM30 - April, 2014

Change the Weather History Date:

Saturday, April 12, 2014

  Actual Average (KPAH) Record (KPAH)
Temperature  
Mean Temperature 66 °F 57 °F  
Max Temperature 77 °F 68 °F 84 °F (1977)
Min Temperature 55 °F 45 °F 26 °F (1990)
Degree Days  
Heating Degree Days 0 9  
Month to date heating degree days 127  
Since 1 July heating degree days 3946  
Cooling Degree Days 1 1  
Month to date cooling degree days 12  
Year to date cooling degree days 19  
Growing Degree Days 16 (Base 50)    
Moisture  
Dew Point 52 °F    
Average Humidity 61    
Maximum Humidity 100    
Minimum Humidity 39    
Precipitation  
Precipitation 0.00 in 0.15 in 1.88 in (1966)
Month to date precipitation 1.74  
Year to date precipitation 13.26  
Snow  
Snow 0.00 in 0.00 in T in (2005)
Month to date snowfall 0.0  
Since 1 July snowfall 9.1  
Snow Depth -    
Sea Level Pressure  
Sea Level Pressure 29.98 in    
Wind  
Wind Speed 6 mph (South)    
Max Wind Speed 21 mph    
Max Gust Speed 28 mph    
Visibility 9 miles    
Events      
T = Trace of Precipitation, MM = Missing Value Source: NWS Daily Summary

Daily Weather History Graph

Daily Weather History Graph

Search for Another Location

Airport or City:

Trip Planner

Search our weather history database for the weather conditions in past years. The results will help you decide how hot, cold, wet, or windy it might be!

Date:

Astronomy

Apr. 12, 2014 Rise Set
Actual Time 6:24 AM CDT 7:27 PM CDT
Civil Twilight 5:58 AM CDT 7:54 PM CDT
Nautical Twilight 5:26 AM CDT 8:25 PM CDT
Astronomical Twilight 4:53 AM CDT 8:58 PM CDT
Moon 5:08 PM CDT (4/12) 4:47 AM CDT (4/12)
Length of Visible Light 13h 56m
Length of Day
13h 02m
Waxing Gibbous, 93% of the Moon is Illuminated
Apr 12
Waxing Gibbous
Apr 15
Full
Apr 22
Last Quarter
Apr 29
New
May 6
First Quarter

Hourly Weather History & Observations

Time (CDT) Temp. Dew Point Humidity Pressure Visibility Wind Dir Wind Speed Gust Speed Precip Events Conditions
12:15 AM 56.7 °F 56.7 °F 100% 30.08 in 3.0 mi Calm Calm - N/A   Clear
12:35 AM 56.8 °F 56.7 °F 99% 30.08 in 3.0 mi Calm Calm - N/A   Clear
12:55 AM 56.3 °F 56.3 °F 100% 30.08 in 2.5 mi Calm Calm - N/A   Clear
1:15 AM 55.2 °F 54.9 °F 99% 30.08 in 1.8 mi Calm Calm - N/A   Mist
1:35 AM 56.3 °F 56.1 °F 99% 30.07 in 2.5 mi SSE 3.5 mph - N/A   Clear
1:55 AM 56.8 °F 56.5 °F 99% 30.07 in 5.0 mi SSE 3.5 mph - N/A   Clear
2:15 AM 57.2 °F 56.3 °F 97% 30.06 in 7.0 mi SSE 3.5 mph - N/A   Clear
2:35 AM 57.6 °F 55.4 °F 92% 30.06 in 10.0 mi Calm Calm - N/A   Clear
2:55 AM 58.3 °F 53.6 °F 84% 30.06 in 10.0 mi SSE 4.6 mph - N/A   Clear
3:15 AM 58.6 °F 52.9 °F 81% 30.06 in 10.0 mi SSE 4.6 mph - N/A   Scattered Clouds
3:35 AM 58.8 °F 52.7 °F 80% 30.06 in 10.0 mi SSE 4.6 mph - N/A   Scattered Clouds
3:55 AM 58.1 °F 52.5 °F 82% 30.06 in 10.0 mi Calm Calm - N/A   Scattered Clouds
4:15 AM 58.1 °F 52.7 °F 82% 30.06 in 10.0 mi Calm Calm - N/A   Mostly Cloudy
4:35 AM 57.9 °F 52.3 °F 82% 30.06 in 10.0 mi Calm Calm - N/A   Mostly Cloudy
4:55 AM 57.9 °F 52.2 °F 81% 30.06 in 10.0 mi Calm Calm - N/A   Scattered Clouds
5:15 AM 57.6 °F 52.0 °F 82% 30.05 in 10.0 mi SSE 3.5 mph - N/A   Clear
5:35 AM 58.1 °F 51.1 °F 77% 30.05 in 10.0 mi SSE 3.5 mph - N/A   Clear
5:55 AM 58.5 °F 50.5 °F 75% 30.04 in 10.0 mi SSE 4.6 mph - N/A   Clear
6:15 AM 58.1 °F 50.4 °F 75% 30.04 in 10.0 mi SSE 4.6 mph - N/A   Clear
6:35 AM 58.1 °F 50.4 °F 75% 30.04 in 10.0 mi SSE 3.5 mph - N/A   Clear
6:55 AM 57.7 °F 50.4 °F 76% 30.05 in 10.0 mi Calm Calm - N/A   Clear
7:15 AM 58.3 °F 50.5 °F 75% 30.05 in 10.0 mi Calm Calm - N/A   Clear
7:35 AM 59.9 °F 50.9 °F 72% 30.05 in 10.0 mi Calm Calm - N/A   Clear
7:55 AM 61.7 °F 50.9 °F 68% 30.05 in 10.0 mi SSE 5.8 mph - N/A   Clear
8:15 AM 63.0 °F 51.3 °F 66% 30.05 in 10.0 mi South 5.8 mph - N/A   Clear
8:35 AM 64.2 °F 51.4 °F 63% 30.05 in 10.0 mi South 6.9 mph - N/A   Clear
8:55 AM 65.5 °F 52.3 °F 62% 30.05 in 10.0 mi South 8.1 mph - N/A   Clear
9:15 AM 66.9 °F 52.5 °F 60% 30.06 in 10.0 mi South 6.9 mph - N/A   Clear
9:35 AM 68.5 °F 53.1 °F 58% 30.06 in 10.0 mi South 12.7 mph 17.3 mph N/A   Clear
9:55 AM 69.6 °F 53.2 °F 56% 30.06 in 10.0 mi SSW 12.7 mph 18.4 mph N/A   Clear
10:15 AM 70.7 °F 53.4 °F 54% 30.06 in 10.0 mi South 12.7 mph 17.3 mph N/A   Clear
10:35 AM 72.1 °F 54.0 °F 53% 30.06 in 10.0 mi SSW 12.7 mph 16.1 mph N/A   Clear
10:55 AM 72.5 °F 54.3 °F 53% 30.05 in 10.0 mi South 13.8 mph 18.4 mph N/A   Clear
11:15 AM 73.0 °F 53.6 °F 50% 30.05 in 10.0 mi SSW 17.3 mph 24.2 mph N/A   Clear
11:35 AM 73.2 °F 53.1 °F 49% 30.04 in 10.0 mi SSW 16.1 mph 24.2 mph N/A   Scattered Clouds
11:55 AM 75.0 °F 53.2 °F 47% 30.03 in 10.0 mi South 13.8 mph 23.0 mph N/A   Scattered Clouds
12:15 PM 74.5 °F 52.9 °F 47% 30.02 in 10.0 mi SSW 18.4 mph 24.2 mph N/A   Mostly Cloudy
12:35 PM 75.0 °F 52.3 °F 45% 30.01 in 10.0 mi SSW 20.7 mph 26.5 mph N/A   Mostly Cloudy
12:55 PM 75.0 °F 53.1 °F 46% 30.00 in 10.0 mi SSW 17.3 mph 24.2 mph N/A   Mostly Cloudy
1:15 PM 74.7 °F 52.2 °F 45% 29.99 in 10.0 mi SSW 18.4 mph 25.3 mph N/A   Mostly Cloudy
1:35 PM 75.7 °F 52.5 °F 44% 29.98 in 10.0 mi South 19.6 mph 25.3 mph N/A   Mostly Cloudy
1:55 PM 75.6 °F 51.4 °F 43% 29.97 in 10.0 mi South 17.3 mph 26.5 mph N/A   Scattered Clouds
2:15 PM 76.5 °F 52.0 °F 42% 29.96 in 10.0 mi SSW 19.6 mph 25.3 mph N/A   Mostly Cloudy
2:35 PM 76.1 °F 51.8 °F 43% 29.95 in 10.0 mi South 18.4 mph 25.3 mph N/A   Mostly Cloudy
2:55 PM 77.2 °F 51.4 °F 41% 29.94 in 10.0 mi South 15.0 mph 24.2 mph N/A   Mostly Cloudy
3:15 PM 76.1 °F 51.1 °F 41% 29.93 in 10.0 mi SSW 16.1 mph 27.6 mph N/A   Scattered Clouds
3:35 PM 77.0 °F 50.7 °F 40% 29.92 in 10.0 mi South 18.4 mph 24.2 mph N/A   Scattered Clouds
3:55 PM 77.2 °F 50.7 °F 39% 29.91 in 10.0 mi South 18.4 mph 26.5 mph N/A   Mostly Cloudy
4:15 PM 77.9 °F 50.7 °F 39% 29.91 in 10.0 mi SSW 19.6 mph 26.5 mph N/A   Mostly Cloudy
4:35 PM 77.4 °F 50.4 °F 39% 29.90 in 10.0 mi South 17.3 mph 25.3 mph N/A   Scattered Clouds
4:55 PM 77.0 °F 50.5 °F 39% 29.89 in 10.0 mi SSW 11.5 mph 20.7 mph N/A   Scattered Clouds
5:15 PM 76.5 °F 50.9 °F 41% 29.88 in 10.0 mi South 16.1 mph 24.2 mph N/A   Clear
5:35 PM 76.3 °F 51.3 °F 41% 29.88 in 10.0 mi SSW 12.7 mph 21.9 mph N/A   Clear
5:55 PM 76.5 °F 51.1 °F 41% 29.88 in 10.0 mi South 15.0 mph 21.9 mph N/A   Clear
6:15 PM 76.5 °F 50.5 °F 40% 29.87 in 10.0 mi South 15.0 mph 20.7 mph N/A   Clear
6:35 PM 76.1 °F 50.9 °F 41% 29.87 in 10.0 mi SSW 15.0 mph - N/A   Clear
6:55 PM 75.2 °F 51.3 °F 43% 29.87 in 10.0 mi South 11.5 mph - N/A   Clear
7:15 PM 75.0 °F 50.9 °F 43% 29.87 in 10.0 mi South 10.4 mph 19.6 mph N/A   Clear
7:35 PM 73.4 °F 51.6 °F 46% 29.87 in 10.0 mi South 9.2 mph 16.1 mph N/A   Clear
7:55 PM 72.5 °F 52.0 °F 48% 29.87 in 10.0 mi South 10.4 mph - N/A   Clear
8:15 PM 72.1 °F 52.2 °F 49% 29.87 in 10.0 mi SSW 9.2 mph - N/A   Clear
8:35 PM 71.6 °F 52.3 °F 51% 29.88 in 10.0 mi South 8.1 mph - N/A   Clear
8:55 PM 71.6 °F 52.3 °F 51% 29.88 in 10.0 mi South 6.9 mph - N/A   Clear
9:15 PM 70.7 °F 52.7 °F 53% 29.88 in 10.0 mi South 8.1 mph - N/A   Clear
9:35 PM 70.3 °F 52.5 °F 53% 29.88 in 10.0 mi South 6.9 mph - N/A   Clear
9:55 PM 69.8 °F 52.3 °F 54% 29.88 in 10.0 mi South 11.5 mph - N/A   Clear
10:15 PM 70.0 °F 52.5 °F 54% 29.88 in 10.0 mi South 10.4 mph - N/A   Clear
10:35 PM 69.8 °F 52.7 °F 54% 29.88 in 10.0 mi South 5.8 mph - N/A   Clear
10:55 PM 69.1 °F 52.0 °F 54% 29.88 in 10.0 mi South 8.1 mph - N/A   Clear
11:15 PM 68.7 °F 52.7 °F 57% 29.88 in 10.0 mi South 9.2 mph 18.4 mph N/A   Clear
11:35 PM 68.4 °F 53.6 °F 59% 29.87 in 10.0 mi South 9.2 mph - N/A   Clear
11:55 PM 68.0 °F 53.8 °F 60% 29.88 in 10.0 mi South 8.1 mph - N/A   Clear